Regional Weather Roundup
Issued by NWS

Home | Current Version | Previous Version | Text Only | Print | Product List | Glossary Off
Versions: 1 2 3 4 5 6 7 8 9 10 11 12 13 14 15 16 17 18 19 20 21 22 23 24 25 26 27 28 29 30 31 32 33 34 35 36 37 38 39 40 41 42 43 44 45 46 47 48 49 50

000
ASUS45 KTFX 221304
RWRMT
MONTANA HOURLY WEATHER ROUNDUP
NATIONAL WEATHER SERVICE GREAT FALLS MT
704 AM MDT TUE APR 22 2014

NOTE: "FAIR" INDICATES FEW OR NO CLOUDS BELOW 12000 FEET WITH NO
SIGNIFICANT WEATHER AND/OR OBSTRUCTIONS TO VISIBILITY.

* THESE STATIONS ARE NOT UNDER NWS QUALITY CONTROL. THEY DO NOT
   REPORT WEATHER SUCH AS PRECIPITATION OR FOG.

MTZ001>007-043-221400-
WEST OF THE DIVIDE
CITY           SKY/WX    TMP DP  RH WIND       PRES   REMARKS
KALISPELL      MOCLDY    37  30  76 NE9       29.65F WCI  30
MISSOULA       CLOUDY    45  30  56 SE5       29.67F
BUTTE          MOCLDY    36  27  70 CALM      29.76F
MULLAN PASS    MOCLDY    37  27  67 W5        29.68F WCI  33
* ESSEX        N/A       36  27  70 S16        N/A   WCI  26
* LINCOLN      N/A       28  25  89 N/A        N/A
* LOOKOUT PASS N/A       39  31  73 N4         N/A
* POLSON       N/A       41  28  60 NE1        N/A
* SEELEY LAKE  N/A       31  27  85 S1         N/A
* THOMP F APT  CLOUDY    44  39  83 NE9G18     N/A
* YAAK HILL    N/A       38  35  89 E1         N/A
$$

MTZ008-052>055-221400-
SOUTHWEST MONTANA
CITY           SKY/WX    TMP DP  RH WIND       PRES   REMARKS
BOZEMAN        CLOUDY    46  28  50 SE8       29.75F
DILLON         CLOUDY    48  28  46 N12       29.74F
W YELLOWSTONE  N/A       39  34  82 NE1G7      N/A
* THREE FORKS  MOCLDY    52  32  47 N/A        N/A
* BOULDER HILL N/A       41  20  43 S8         N/A
* MONIDA PASS  N/A       41  37  86 S13G18     N/A
* RAYNOLDS PAS N/A       42  22  45 SE20G27    N/A
* WHITEHALL    N/A       40  22  49 W2         N/A
* WISE RIVER   N/A       31  25  78 SW2        N/A
$$

MTZ009>010-012-014-046-048-049-054-221400-
EAST SLOPES AND CENTRAL MONTANA
CITY           SKY/WX    TMP DP  RH WIND       PRES   REMARKS
CUT BANK       CLOUDY    34  25  70 CALM      29.72S
GREAT FALLS    MOCLDY    43  27  53 N5        29.71F
HELENA         CLOUDY    43  27  53 CALM      29.72F
MALMSTROM AFB  CLOUDY    45  27  49 NW3       29.69F
* CONRAD       CLOUDY    30  25  82 N/A        N/A
* DEARBORN     N/A       35  27  73 S1         N/A
* EAST GLACIER N/A       36  24  62 NW2        N/A
* MONARCH      N/A       41  18  39 S11        N/A
* PENDROY      N/A       41  27  58 W3         N/A
* ROGERS PASS  N/A       39  24  55 NW3        N/A
* SAINT MARY   N/A       28  24  85 S2         N/A
* SWEET GRASS  N/A       44  22  42 S14        N/A
$$

MTZ011-013-016-021-035-040-045-047-050-051-221400-
NORTH CENTRAL MONTANA
CITY           SKY/WX    TMP DP  RH WIND       PRES   REMARKS
HAVRE          MOCLDY    46  27  48 E14       29.71F
LEWISTOWN      CLOUDY    43  28  56 SE7       29.75F
* DENTON       N/A       51  27  39 S11        N/A
* GEYSER       N/A       41  28  60 S8         N/A
* JUDITH GAP   N/A       40  25  55 S3G8       N/A
* LOMA         N/A       47  25  42 NE10       N/A
$$

MTZ017>020-022>027-061-062-221400-
NORTHEAST MONTANA
CITY           SKY/WX    TMP DP  RH WIND       PRES   REMARKS
GLASGOW        PTCLDY    45  30  56 E17       29.82F
JORDAN         MOCLDY    46  27  48 E8        29.79F
SIDNEY         MOCLDY    46  32  58 S5        29.93F
WOLF POINT     PTCLDY    43  32  65 E10       29.88F
* BEAVER HILL  N/A       40  30  68 E24        N/A   WCI  30
* CIRCLE       N/A       47  28  48 N/A        N/A
* LINDSAY DVD  N/A       37  29  73 E9         N/A   WCI  30
* NAVAJO       N/A       35  29  79 E6         N/A   WCI  30
* SACO         N/A       45  28  51 E15G20     N/A
$$

MTZ028>042-056>058-221400-
SOUTHCENTRAL AND SOUTHEAST MONTANA
CITY           SKY/WX    TMP DP  RH WIND       PRES   REMARKS
BAKER          CLOUDY    41  32  70 E10       29.89F
BILLINGS       CLOUDY    48  30  50 CALM      29.78F
LIVINGSTON     CLOUDY    45  30  56 E5        29.79F
MILES CITY     CLOUDY    45  30  56 NE8       29.82F
* LAUREL APT   CLOUDY    45  28  51 N5         N/A
* ROUNDUP APT  CLOUDY    46  27  48 N/A        N/A
* ALZADA       N/A       37  31  79 N/A        N/A
* HYSHAM       N/A       49  26  41 N1         N/A
* LAME DEER    N/A       49  32  52 S6         N/A
* REED POINT   N/A       42  34  73 W4G9       N/A
* ROSCOE HILL  N/A       49  18  29 W4         N/A
$$

REGIONAL REPORTS...DAKOTAS
CITY           SKY/WX    TMP DP  RH WIND       PRES   REMARKS
WILLISTON      PTCLDY    43  30  60 E5        29.96F
DICKINSON      MOCLDY    43  28  56 SE14      29.95F
CROSBY         CLEAR     41  36  82 SE3       29.98F
TIOGA          CLEAR     32  32 100 E6        30.02F WCI  26
WATFORD CITY   CLEAR     36  30  79 E5        29.95F WCI  32
BISMARCK       MOCLDY    34  30  85 NE7       30.07F WCI  28
GRAND FORKS    FOG       36  34  92 SE3       30.14R
FARGO          CLEAR     39  34  82 SE3       30.13S
RAPID CITY     PTCLDY    37  28  70 SE3       29.90F
$$

REGIONAL REPORTS...WYOMING/IDAHO/WASHINGTON
CITY           SKY/WX    TMP DP  RH WIND       PRES   REMARKS
GILLETTE       CLOUDY    46  34  63 S15       29.88F
SHERIDAN       MOCLDY    45  39  80 CALM      29.82F
CODY           CLOUDY    54  34  47 N6        29.85F
YELLOWSTONE LA CLOUDY    32  32 100 CALM      30.02F
SALMON         PTCLDY    36  27  70 CALM      29.71S
MULLAN PASS    MOCLDY    37  27  67 W5        29.68S WCI  33
SPOKANE        CLOUDY    46  39  77 SW14      29.66R
$$

REGIONAL REPORTS...ALBERTA
CITY           SKY/WX    TMP DP  RH WIND       PRES   REMARKS
EDMONTON       MOCLDY    36  25  64 E8        29.70F WCI  30

$$




USA.gov is the U.S. government's official web portal to all federal, state and local government web resources and services.